Temp
9 9 9 9 10 9 9 10 9 10 10 10 10 10 10 10 10 10 10 10 10 10 10 10 10 10 10 10 9 8 8 8 8 8 8 8 8 6 6 4 4 5 4
11 9 9 10 9 10 10 10 10 10 10 9 10 10 10 10 10 10 10 10 10 10 10 10 9 9 9 9 9 8 8 8 8 7 7 7 7 6 4 4 5 4 3
12 11 10 10 10 10 10 10 10 10 10 10 10 10 10 10 10 10 10 10 10 10 10 9 9 9 9 9 9 9 8 8 7 7 7 6 6 5 4 4 3 3 2
13 12 11 11 10 10 10 10 10 10 10 10 10 10 10 10 10 10 10 10 9 9 9 9 10 9 9 9 8 8 8 8 7 6 5 5 4 4 4 3 2 2 1
13 12 12 11 11 11 10 10 9 10 10 10 10 10 10 10 10 10 10 10 9 9 9 8 9 9 9 8 8 8 8 7 6 5 4 4 4 3 2 1 0 -0 -2
13 12 12 11 11 11 10 10 10 10 10 10 10 10 10 10 10 9 9 9 9 9 9 8 8 8 8 8 8 7 7 5 4 4 3 3 2 1 0 -0 -1 -3 -3
13 13 12 12 11 11 11 10 10 10 9 9 10 10 10 9 9 9 9 9 9 9 8 8 8 7 7 6 6 4 3 2 2 2 1 0 -0 -1 -2 -3 -3 -3 -3
14 13 13 12 12 12 11 11 11 10 9 9 9 9 9 9 9 9 9 9 9 9 8 7 6 5 4 4 2 2 1 1 0 0 -1 -1 -2 -3 -4 -4 -4 -3 -3
14 14 13 13 13 12 12 11 11 11 10 9 9 9 8 8 9 9 9 8 8 7 6 4 3 2 2 1 0 0 -0 -0 -1 -2 -3 -4 -3 -3 -3 -4 -3 -4 -5
14 14 14 13 12 12 12 12 11 10 9 9 8 8 8 8 8 8 8 7 6 5 3 2 1 0 -0 -0 -1 -1 -3 -3 -4 -3 -3 -4 -5 -5 -4 -4 -5 -6 -8
14 14 13 13 12 11 11 10 10 9 8 8 7 7 7 6 6 5 4 4 3 2 1 0 -0 -1 -2 -2 -3 -4 -4 -5 -5 -5 -4 -5 -7 -7 -8 -8 -9 -9 -9
14 12 11 10 10 9 9 8 8 8 8 7 7 6 5 3 2 2 1 1 1 1 0 -1 -2 -3 -3 -4 -5 -5 -6 -7 -6 -7 -7 -8 -9 -9 -10 -10 -11 -11 -11
10 9 9 8 8 8 8 8 7 6 7 5 4 3 2 1 1 -0 -0 -0 -1 -1 -2 -3 -3 -4 -4 -4 -6 -7 -7 -8 -9 -10 -10 -10 -10 -11 -11 -12 -12 -12 -12
7 7 7 6 6 5 5 6 5 4 4 3 2 1 -1 -2 -2 -2 -2 -2 -3 -3 -4 -4 -5 -6 -8 -8 -9 -10 -10 -11 -11 -11 -12 -12 -12 -12 -12 -12 -13 -13 -13
6 6 5 4 4 4 3 2 2 3 2 1 -1 -1 -2 -3 -4 -4 -4 -4 -5 -5 -5 -8 -9 -9 -9 -10 -10 -11 -11 -12 -12 -13 -13 -14 -14 -14 -14 -14 -14 -14 -14
5 3 3 3 2 2 1 0 -1 -2 -2 -2 -3 -2 -4 -4 -5 -5 -5 -6 -7 -8 -9 -9 -10 -11 -11 -11 -12 -12 -12 -13 -13 -14 -15 -15 -15 -15 -15 -15 -15 -15 -15
4 2 1 -0 0 0 -0 -0 -1 -4 -4 -4 -5 -5 -5 -5 -6 -7 -8 -8 -9 -10 -11 -11 -12 -12 -12 -13 -13 -14 -14 -14 -15 -16 -16 -16 -17 -17 -17 -17 -17 -16 -16
1 0 0 -1 -2 -3 -3 -4 -5 -6 -7 -8 -7 -7 -8 -8 -9 -9 -10 -11 -11 -12 -12 -13 -13 -14 -14 -14 -15 -15 -16 -16 -16 -17 -17 -17 -18 -18 -18 -18 -18 -18 -17
-1 -2 -3 -4 -5 -6 -6 -6 -6 -7 -8 -9 -10 -10 -10 -11 -10 -10 -11 -12 -13 -14 -14 -14 -15 -15 -16 -16 -17 -17 -17 -18 -18 -18 -18 -18 -19 -19 -19 -19 -18 -19 -18
-4 -4 -4 -5 -5 -6 -7 -7 -8 -9 -10 -11 -11 -12 -13 -13 -13 -14 -13 -14 -15 -16 -16 -16 -17 -17 -18 -18 -18 -18 -18 -18 -19 -19 -19 -19 -20 -20 -19 -19 -19 -19 -19
-5 -5 -6 -7 -7 -8 -8 -9 -10 -10 -11 -11 -11 -12 -13 -14 -15 -16 -16 -17 -17 -18 -18 -18 -18 -18 -19 -19 -19 -19 -20 -20 -20 -20 -20 -20 -20 -20 -20 -20 -20 -19 -19
-6 -7 -7 -8 -9 -9 -11 -12 -12 -13 -14 -15 -15 -14 -14 -15 -17 -17 -18 -18 -18 -18 -19 -19 -19 -20 -20 -21 -21 -21 -21 -21 -21 -21 -21 -21 -21 -21 -21 -20 -20 -20 -20
-8 -8 -10 -11 -12 -13 -13 -14 -14 -15 -15 -16 -16 -17 -17 -18 -18 -18 -18 -17 -17 -17 -18 -18 -19 -20 -21 -21 -19 -21 -22 -22 -22 -22 -22 -22 -22 -22 -21 -21 -21 -20 -20
-9 -10 -11 -13 -14 -14 -14 -14 -14 -16 -17 -17 -18 -18 -18 -18 -19 -19 -18 -17 -17 -18 -18 -18 -18 -18 -18 -18 -19 -20 -20 -20 -20 -20 -20 -21 -22 -23 -22 -22 -22 -21 -21
-10 -11 -13 -15 -16 -16 -17 -17 -17 -18 -18 -18 -18 -19 -19 -19 -20 -20 -19 -18 -18 -18 -18 -18 -18 -18 -18 -19 -19 -19 -19 -19 -19 -20 -20 -20 -20 -20 -21 -22 -22 -21 -21
-13 -14 -15 -17 -17 -17 -18 -18 -18 -18 -18 -19 -19 -20 -20 -20 -20 -19 -19 -18 -18 -18 -18 -18 -18 -19 -19 -19 -19 -19 -19 -19 -19 -19 -20 -19 -19 -19 -20 -21 -22 -21 -21
Height
1428 1433 1439 1444 1450 1455 1459 1463 1469 1474 1481 1486 1490 1494 1498 1500 1503 1506 1507 1509 1510 1510 1512 1512 1513 1513 1512 1512 1511 1510 1508 1505 1503 1502 1502 1505 1505 1507 1507 1509 1510 1511 1511
1425 1428 1433 1438 1443 1448 1452 1457 1462 1467 1473 1478 1484 1487 1490 1493 1496 1498 1500 1501 1502 1503 1504 1505 1505 1505 1504 1504 1501 1500 1499 1499 1498 1495 1494 1495 1494 1498 1498 1499 1502 1503 1505
1423 1426 1428 1432 1436 1439 1445 1451 1456 1461 1467 1472 1477 1480 1483 1486 1489 1490 1492 1494 1494 1495 1496 1496 1496 1496 1493 1493 1491 1491 1491 1489 1489 1487 1486 1485 1487 1488 1492 1493 1494 1495 1496
1415 1418 1422 1426 1430 1435 1441 1446 1450 1455 1460 1465 1469 1473 1476 1480 1483 1485 1487 1487 1487 1487 1487 1486 1487 1485 1483 1483 1482 1481 1481 1481 1481 1479 1479 1480 1481 1483 1485 1486 1486 1488 1488
1411 1413 1415 1419 1425 1431 1435 1439 1444 1448 1453 1458 1462 1466 1470 1472 1474 1476 1478 1479 1479 1478 1478 1476 1476 1475 1474 1473 1472 1472 1473 1472 1472 1471 1472 1472 1475 1476 1478 1480 1479 1480 1481
1403 1406 1412 1415 1420 1423 1427 1431 1436 1440 1445 1450 1454 1458 1461 1464 1465 1467 1469 1470 1469 1468 1468 1467 1466 1465 1465 1465 1464 1464 1465 1464 1465 1465 1466 1468 1468 1471 1473 1473 1474 1476 1478
1398 1402 1406 1409 1413 1418 1422 1425 1429 1432 1437 1440 1446 1450 1454 1457 1456 1458 1459 1459 1459 1459 1459 1458 1457 1456 1457 1457 1456 1458 1459 1460 1462 1462 1464 1467 1468 1467 1470 1471 1471 1473 1473
1392 1396 1400 1402 1406 1411 1416 1419 1423 1426 1429 1434 1438 1441 1443 1445 1447 1449 1450 1450 1450 1450 1450 1450 1450 1450 1451 1452 1453 1453 1457 1459 1460 1460 1462 1464 1465 1466 1467 1469 1469 1468 1466
1385 1389 1393 1396 1400 1405 1409 1414 1419 1419 1419 1424 1429 1432 1435 1436 1438 1439 1440 1441 1442 1443 1444 1444 1445 1447 1448 1450 1453 1453 1455 1456 1459 1458 1459 1461 1463 1464 1465 1465 1463 1461 1457
1384 1387 1391 1393 1397 1401 1405 1402 1403 1407 1412 1418 1422 1425 1427 1428 1429 1431 1433 1434 1435 1437 1439 1441 1444 1446 1447 1449 1451 1452 1454 1456 1456 1457 1458 1459 1460 1459 1459 1458 1457 1455 1454
1379 1384 1388 1388 1391 1391 1392 1396 1400 1403 1407 1412 1415 1417 1420 1422 1424 1426 1428 1430 1433 1435 1437 1440 1443 1445 1447 1449 1451 1452 1453 1453 1454 1454 1454 1454 1454 1454 1454 1453 1453 1451 1448
1362 1371 1375 1378 1380 1386 1391 1394 1396 1399 1403 1405 1408 1411 1415 1418 1422 1424 1427 1430 1432 1435 1437 1440 1442 1445 1447 1448 1451 1452 1452 1452 1451 1451 1451 1451 1452 1451 1450 1448 1446 1444 1442
1365 1370 1373 1380 1381 1384 1388 1390 1394 1397 1398 1402 1406 1408 1411 1416 1420 1424 1427 1430 1434 1436 1439 1441 1443 1445 1446 1447 1447 1448 1449 1448 1448 1448 1449 1448 1448 1446 1444 1441 1439 1437 1434
1362 1366 1367 1376 1377 1380 1385 1384 1393 1399 1400 1401 1406 1408 1414 1416 1420 1425 1427 1431 1435 1437 1438 1441 1443 1444 1445 1445 1445 1446 1446 1446 1445 1445 1446 1444 1442 1440 1438 1436 1433 1430 1427
1362 1367 1367 1376 1379 1380 1385 1387 1395 1397 1405 1407 1410 1409 1415 1420 1425 1427 1429 1431 1436 1438 1439 1441 1443 1446 1447 1447 1446 1446 1445 1444 1444 1443 1442 1440 1438 1436 1434 1432 1429 1425 1422
1364 1369 1371 1375 1379 1380 1385 1387 1399 1406 1408 1411 1417 1415 1420 1422 1428 1430 1430 1433 1436 1438 1441 1442 1443 1445 1446 1446 1445 1445 1443 1442 1441 1440 1439 1438 1435 1433 1429 1427 1425 1422 1417
1369 1373 1379 1384 1381 1383 1389 1391 1397 1408 1411 1413 1418 1418 1423 1426 1431 1434 1434 1436 1437 1439 1441 1442 1442 1443 1445 1445 1444 1442 1441 1439 1438 1437 1436 1434 1431 1428 1425 1422 1420 1417 1413
1376 1380 1383 1388 1390 1391 1393 1397 1402 1408 1415 1418 1423 1426 1428 1430 1433 1434 1436 1438 1438 1438 1440 1441 1441 1441 1442 1442 1442 1440 1438 1436 1435 1434 1432 1430 1427 1425 1422 1419 1416 1413 1410
1385 1387 1390 1394 1399 1403 1404 1407 1411 1416 1419 1424 1427 1429 1430 1432 1434 1434 1436 1436 1438 1438 1439 1439 1439 1439 1439 1439 1439 1437 1435 1433 1432 1430 1429 1427 1424 1422 1419 1416 1413 1410 1407
1394 1398 1400 1403 1408 1410 1413 1413 1416 1420 1423 1426 1429 1432 1433 1435 1434 1434 1435 1435 1436 1437 1438 1438 1438 1436 1436 1437 1436 1434 1432 1431 1429 1427 1425 1423 1420 1418 1415 1412 1410 1406 1403
1401 1405 1407 1409 1412 1417 1418 1420 1421 1423 1424 1428 1430 1433 1434 1435 1436 1436 1436 1436 1436 1437 1436 1435 1434 1434 1435 1434 1433 1431 1429 1428 1426 1423 1422 1419 1417 1415 1412 1409 1406 1403 1400
1409 1412 1414 1416 1417 1419 1421 1424 1425 1427 1429 1430 1431 1432 1433 1434 1435 1436 1437 1435 1434 1434 1434 1433 1432 1432 1431 1430 1428 1427 1425 1424 1422 1420 1418 1415 1413 1411 1408 1405 1402 1399 1396
1414 1416 1417 1419 1421 1422 1423 1426 1428 1429 1430 1432 1434 1434 1433 1434 1434 1435 1434 1432 1431 1431 1431 1430 1430 1429 1427 1425 1423 1422 1421 1420 1418 1416 1413 1411 1409 1407 1404 1401 1399 1395 1392
1416 1418 1419 1420 1423 1423 1425 1426 1428 1431 1433 1433 1435 1435 1434 1434 1434 1433 1432 1431 1430 1429 1428 1427 1428 1426 1423 1421 1420 1418 1416 1415 1413 1411 1409 1406 1404 1402 1399 1397 1394 1390 1387
1419 1419 1421 1423 1425 1427 1428 1429 1431 1432 1432 1433 1433 1433 1434 1433 1433 1432 1431 1430 1429 1427 1427 1426 1425 1422 1419 1417 1416 1415 1413 1411 1410 1408 1405 1402 1399 1396 1393 1391 1388 1386 1384
1421 1423 1424 1427 1428 1430 1431 1431 1431 1432 1432 1433 1434 1434 1433 1432 1431 1430 1429 1428 1428 1426 1424 1424 1422 1418 1415 1414 1413 1412 1410 1409 1406 1404 1401 1397 1394 1391 1388 1386 1384 1382 1379
Wind_Speed
34 35 37 38 36 36 36 40 49 53 48 47 40 43 34 31 31 30 31 32 31 32 32 33 34 33 32 31 35 37 35 38 38 40 32 35 34 32 28 26 26 29 34
30 31 38 37 38 39 39 36 37 46 47 44 41 35 34 34 34 34 35 35 35 35 35 33 34 34 34 35 38 35 32 38 41 43 40 39 38 35 35 33 28 33 29
31 33 32 35 39 41 44 44 40 38 43 41 41 41 38 35 35 36 36 36 37 37 36 36 35 38 40 39 35 32 33 36 39 39 41 38 38 36 30 31 34 31 27
34 34 35 36 37 38 39 41 42 41 41 42 44 40 39 37 36 36 34 34 35 37 38 42 39 40 41 35 33 32 33 34 36 35 34 32 31 31 32 31 29 28 25
33 33 36 37 33 32 33 34 36 40 39 38 39 37 35 34 36 35 33 34 35 36 39 35 35 36 35 32 32 34 34 34 33 32 31 30 30 28 27 23 24 19 18
35 37 32 32 30 33 33 34 34 35 36 35 36 35 34 34 35 34 33 31 32 35 36 36 34 36 33 35 34 35 33 28 27 26 27 28 24 22 21 21 20 17 20
33 31 30 30 30 31 30 29 30 32 32 34 33 32 30 28 32 33 30 31 32 32 31 32 31 30 31 30 26 23 20 18 18 18 17 16 14 15 17 16 19 19 21
34 32 32 31 29 29 29 29 29 29 30 31 32 33 33 32 32 34 32 30 26 28 29 27 24 23 21 17 13 11 12 11 11 11 12 14 16 16 17 18 19 25 32
31 32 32 32 30 30 31 30 26 32 37 35 33 33 33 32 30 28 25 23 22 22 21 18 15 12 10 9 9 8 9 9 11 12 12 13 15 17 19 25 28 27 29
26 25 25 26 26 26 28 38 42 38 34 33 30 28 26 21 21 23 21 18 16 16 14 12 10 9 9 9 7 6 7 9 11 11 11 15 19 22 24 25 24 23 19
20 19 22 24 27 34 39 36 35 32 27 25 24 20 17 15 15 13 11 11 10 11 11 10 9 7 5 4 3 6 7 10 13 15 15 14 13 13 11 13 14 17 21
35 36 32 31 33 32 28 26 24 24 25 24 22 20 17 15 13 13 14 12 12 10 9 8 6 3 2 3 5 9 10 11 15 15 14 13 11 12 13 14 16 19 21
24 27 25 25 23 23 24 24 22 22 23 22 21 20 19 18 17 16 14 12 9 6 4 1 0 4 7 9 9 9 10 10 11 11 11 12 13 14 16 18 19 20 22
24 26 27 26 26 25 23 20 19 17 18 21 21 21 21 20 17 15 12 8 5 3 2 2 5 6 6 8 9 11 11 14 15 12 11 14 16 18 19 18 20 21 24
26 25 24 22 22 22 20 19 17 17 15 18 19 21 19 18 15 12 9 7 4 4 7 8 6 3 1 3 6 7 7 9 10 11 13 16 17 19 20 19 20 23 25
23 24 24 23 23 24 24 26 19 17 17 17 16 14 15 15 13 8 5 4 5 7 4 3 3 4 4 5 6 7 8 10 12 13 17 17 18 19 20 21 23 24 25
20 22 23 24 26 26 24 25 29 25 21 20 18 17 13 12 8 7 8 8 9 7 6 5 4 5 6 7 7 8 10 12 15 15 17 17 20 21 23 23 24 24 25
23 23 23 23 24 26 27 28 28 27 24 22 15 12 11 9 8 9 12 10 7 8 7 6 6 6 7 8 10 12 13 14 15 15 17 18 18 20 21 22 22 23 23
24 25 26 27 26 25 24 23 22 20 19 16 13 10 10 8 5 5 4 4 6 6 6 6 7 7 8 9 10 11 12 13 15 15 16 17 18 19 19 20 21 22 23
26 25 25 25 23 22 20 20 19 17 16 15 14 14 7 4 7 8 8 7 7 7 6 6 6 7 8 9 10 11 12 13 14 14 15 16 17 17 18 20 20 22 22
26 24 23 22 21 19 18 17 15 13 12 10 10 9 8 6 8 8 8 8 7 6 7 7 8 8 8 9 10 10 11 12 13 14 15 15 16 17 17 18 19 21 22
20 20 19 19 19 18 17 16 14 13 12 10 8 6 5 6 7 7 6 7 7 8 8 8 8 8 9 9 10 11 11 12 13 13 14 15 15 16 17 18 19 22 22
18 17 17 16 15 15 14 13 13 11 10 9 7 7 7 7 6 5 6 7 7 8 9 10 10 10 10 12 13 12 11 12 12 13 15 16 16 17 18 20 21 22 23
13 13 13 13 13 12 12 12 11 11 10 9 8 7 6 6 6 7 7 8 9 9 10 12 13 13 13 14 13 13 13 13 14 16 18 20 20 19 19 20 21 22 23
13 13 13 13 12 12 12 11 10 9 7 6 6 5 5 5 5 6 8 9 11 12 13 13 14 14 14 14 13 12 12 14 17 19 22 23 24 23 23 22 21 22 23
14 14 13 12 12 11 10 9 8 7 6 5 5 4 5 5 5 7 9 11 12 14 13 15 16 15 14 13 12 13 15 17 19 20 23 24 25 25 23 23 23 24 24
Wind_Direction
201 202 199 201 205 208 208 215 210 219 213 219 225 222 229 231 231 233 240 244 246 253 255 256 256 259 262 262 275 277 281 255 263 265 275 277 278 266 247 237 233 244 249
201 198 202 205 208 207 208 214 217 220 217 218 216 222 229 231 234 236 241 245 248 251 254 257 259 266 260 272 279 275 276 274 269 268 267 267 259 245 228 231 246 246 252
201 202 206 207 207 209 209 212 213 215 214 216 222 226 231 233 235 240 244 247 252 252 255 256 260 266 270 278 275 271 272 278 267 260 258 258 251 236 235 243 244 248 251
200 201 203 207 209 213 214 214 214 217 217 219 222 228 232 236 240 244 245 249 253 256 253 259 268 269 271 274 268 269 274 272 269 263 258 254 243 236 240 243 247 250 256
204 205 207 207 206 209 212 214 216 219 220 222 226 231 233 236 240 241 243 246 249 253 265 267 268 272 270 264 266 267 268 267 261 256 250 246 237 237 241 244 250 255 248
204 209 207 208 207 208 209 209 211 216 216 219 221 226 231 235 242 247 247 248 250 251 260 265 270 270 261 264 265 266 264 263 256 249 240 236 237 241 245 252 257 269 274
209 209 208 206 209 211 210 208 209 213 213 214 216 220 226 230 238 249 251 257 253 257 262 266 268 261 263 263 262 265 256 243 234 239 242 246 251 255 264 269 281 271 264
211 211 211 209 209 210 210 210 208 213 215 213 214 216 225 232 241 250 251 253 254 258 259 260 257 257 259 255 250 235 230 230 237 243 253 268 280 291 290 272 261 270 273
211 210 210 209 207 207 208 207 206 208 211 212 217 218 233 241 241 247 249 248 254 252 249 245 241 239 232 214 226 228 246 258 273 290 303 301 288 280 285 284 279 270 274
216 215 211 208 206 206 205 203 204 208 208 218 227 224 222 225 235 247 247 238 236 229 217 207 195 196 195 211 229 257 282 290 306 308 294 290 289 281 274 272 271 267 272
212 211 210 202 199 203 207 208 210 212 213 208 203 202 208 216 219 221 211 210 199 183 175 175 179 194 206 245 289 306 305 297 300 293 286 286 288 290 284 286 283 276 273
203 200 197 199 203 208 210 203 204 203 195 193 197 191 186 185 176 159 153 159 157 165 166 174 190 207 252 295 290 292 298 288 284 286 287 292 294 287 285 284 280 278 275
208 209 210 210 198 193 192 187 186 188 189 180 179 170 167 161 162 158 157 159 158 150 144 141 297 295 296 304 318 305 291 292 300 306 306 303 302 296 293 295 293 289 284
191 179 173 175 170 167 169 170 173 172 173 170 164 155 148 146 145 144 145 139 135 124 100 336 331 353 2 342 351 336 322 314 319 325 309 296 297 302 302 299 296 297 294
163 159 153 154 152 148 142 137 150 155 166 161 152 146 146 137 130 134 130 119 95 41 25 42 58 76 19 331 339 335 332 320 321 310 305 311 311 309 306 305 302 301 298
141 138 140 144 140 135 135 128 116 116 129 131 127 127 130 130 132 134 117 64 50 80 80 70 33 5 8 345 335 325 326 325 314 320 319 316 313 312 309 305 304 302 299
135 135 133 132 132 130 130 129 128 126 130 127 126 126 125 122 116 85 70 72 86 79 70 65 36 21 357 346 341 335 327 317 316 319 315 314 312 310 311 309 307 305 302
132 129 129 124 120 122 123 123 125 125 120 113 110 104 100 98 92 91 83 68 43 47 56 45 22 5 351 341 331 325 323 322 320 317 317 317 315 314 312 310 308 308 306
128 125 123 121 119 115 114 113 112 112 108 102 96 85 72 69 81 106 120 77 65 37 38 23 10 357 348 339 330 327 326 325 323 322 318 316 313 313 312 311 309 308 308
114 115 116 116 115 113 115 115 117 120 121 123 117 103 82 62 35 30 27 39 35 31 25 21 4 357 348 339 331 330 326 322 318 317 314 314 314 313 311 311 309 309 308
122 122 122 119 117 116 114 112 113 114 112 111 109 120 123 63 56 48 40 36 36 27 13 8 1 349 339 330 327 319 318 317 317 316 316 315 311 311 311 309 309 309 308
115 114 115 113 112 108 104 101 97 94 90 85 76 81 81 65 61 57 38 21 15 4 353 343 340 335 330 322 322 320 320 319 318 315 312 311 311 310 310 309 309 306 307
106 105 101 96 97 99 96 92 89 90 91 90 85 78 69 63 53 39 12 1 353 344 337 335 331 325 321 318 317 319 316 313 310 309 311 308 308 308 306 306 306 305 304
102 101 98 98 95 87 86 88 95 98 93 86 76 65 57 44 29 9 354 344 343 340 335 330 326 323 321 321 321 319 317 316 317 319 318 314 310 306 304 301 302 302 302
97 96 95 92 91 89 89 90 90 86 82 79 67 50 37 25 16 356 341 339 338 336 331 326 323 323 324 324 322 321 324 325 322 318 315 314 313 311 306 304 302 302 301
94 92 91 92 90 90 89 89 87 82 71 56 41 27 16 3 347 342 336 333 333 329 328 326 323 323 324 323 322 322 321 318 316 314 312 312 314 313 310 305 300 296 294